Regional Weather Roundup
Issued by NWS Binghamton, NY

Home | Current Version | Previous Version | Text Only | Print | Product List | Glossary On
Versions: 1 2 3 4 5 6 7 8 9 10 11 12 13 14 15 16 17 18 19 20 21 22 23 24 25 26 27 28 29 30 31 32 33 34 35 36 37 38 39 40 41 42 43 44 45 46 47 48 49 50
000
ASUS41 KBGM 281710
RWRBGM
RWRBGM
BINGHAMTON REGIONAL WEATHER ROUNDUP
NATIONAL WEATHER SERVICE BINGHAMTON NY
1200 PM EST SAT FEB 28 2015

Note: "fair" indicates few or no clouds below 12,000 feet with no
significant weather and/or obstructions to visibility.

* = Station(s) that does not report precipitation, such as rain,
snow, etc, also no thunder or fog.

!NYZ009-015>018-022>025-036-037-044>046-055>057-062-281800
...CENTRAL NEW YORK...

CITY           SKY/WX    TMP DP  RH WIND       PRES   REMARKS
BINGHAMTON     SUNNY     14   0  53 CALM      30.68S
CORTLAND       FAIR      18   3  53 W7        30.74S WCI   8
DANSVILLE      SUNNY     19   1  45 NW7       30.76F WCI  10
ELMIRA         SUNNY     17  -1  45 CALM      30.76F
ITHACA         SUNNY     15  -1  49 CALM      30.75S
MONTICELLO     SUNNY     18   3  53 NW5       30.69S WCI  11
NORWICH        SUNNY     16   0  48 S3        30.75S
ONEONTA        SUNNY     14   1  57 NW3       30.66S
PENN YAN       SUNNY     17   1  49 S5        30.75S WCI  10
ROME           CLOUDY    14   3  61 CALM      30.81S
SIDNEY         SUNNY     19   3  49 SW5       30.74F WCI  13
SYRACUSE       MOSUNNY   15   3  58 W10       30.78F WCI   2
$$

!PAZ038>040-043-044-047-048-072-281800
...NORTHEAST PENNSYLVANIA...

CITY           SKY/WX    TMP DP  RH WIND       PRES   REMARKS
HAZLETON       SUNNY     18  -6  35 CALM      30.72F
SCRANTON       SUNNY     18  -1  43 CALM      30.76S
TOWANDA*       SUNNY     18   0  45 NE3       30.80F
$$
&&
KEY
WCI = WIND CHILL INDEX
VSB = VISIBILITY
HX  = HEAT INDEX
$$



USA.gov is the U.S. government's official web portal to all federal, state and local government web resources and services.